Location: Holcomb Observatory
(44.4922°N, 73.1654°W)
Time: 04:40:38
(UTC-04:00)

Cosmos 2360 Rocket - Visible Passes

Search period start: 29 July 2014 00:00
Search period end: 08 August 2014 00:00
Orbit: 834 x 845 km, 71.0° (Epoch: 28 July)

Date Brightness Start Highest point End Pass type
(mag) Time Alt. Az. Time Alt. Az. Time Alt. Az.
29 Jul 2.3 21:01:03 10° NNW 21:06:43 71° ENE 21:12:21 10° SSE visible
29 Jul 4.4 22:46:27 10° WNW 22:50:05 18° W 22:53:42 10° SW visible
30 Jul 2.3 20:45:29 10° NNW 20:51:08 67° ENE 20:56:45 10° SE visible
30 Jul 4.3 22:30:43 10° WNW 22:34:33 19° W 22:38:22 10° SW visible
31 Jul 4.3 22:15:01 10° NW 22:19:01 20° W 22:23:00 10° SW visible
01 Aug 4.3 21:59:19 10° NW 22:03:29 21° W 22:07:38 10° SSW visible
02 Aug 4.2 21:43:38 10° NW 21:47:56 23° W 21:52:14 10° SSW visible
03 Aug 4.2 21:27:57 10° NW 21:32:24 24° WSW 21:36:50 10° SSW visible
04 Aug 4.2 21:12:17 10° NW 21:16:51 26° WSW 21:21:25 10° SSW visible
05 Aug 4.1 20:56:38 10° NW 21:01:19 27° WSW 21:06:00 10° SSW visible
06 Aug 4.1 20:40:58 10° NW 20:45:46 29° WSW 20:50:33 10° SSW visible
